STARLINK-30385, 57778

Orbit data source: Space-Track

STARLINK-30385, 57778 is a payload satellite in LEO that was launched on Mon, 04 Sep 2023 UTC via an FALCON 9 launch vehicle from the Air Force Eastern Test Range (AFETR). Payload-class satellites include a variety of spacecraft equipped with specific instruments for various scientific and technological missions. These include communications satellites like Starlink; space stations such as the ISS; scientific satellites like the Hubble; Earth observation satellites from companies like Planet Labs, Umbra, and HawkEye 360; GPS; miniature CubeSats for education and research; and military/defense satellites.

Loading next visibility...
Identifier
57778, 2023-134H
Orbit
LEO
Last TLE update
16 hours ago
Origin
Manufacturer
SpaceX/Seattle
Mission
Operational Commercial Communications
Bus & Motor
STARLINK V2M, Unknown motor
Mass
730 kg wet, ~700 kg dry
Launch date (UTC)
2023-09-04 (2 years ago)
Launch vehicle
FALCON 9
Launch site
Air Force Eastern Test Range (AFETR)
Object type
Payload
Rocket body
Debris
Shape & HBR
Box + 2 Pan, 29 m
Radar Cross Section
33.884 m², Large (>1 m²)

Expand to show TLE details & history

TLE from 16 hours ago
0 STARLINK-30385
1 57778U 23134H   25150.67238792 -.00001928  00000-0 -12768-3 0  9993
2 57778  43.0032 282.8726 0001711 274.5728  85.4919 15.02527558 96885
Epoch: 2025-05-30T16:08Z
TLE epoch observation values (Epoch: 2025-05-30T16:08:14.316Z)
Latitude
-0°
Longitude
152.38918°
Altitude
558.791 km
Speed
7.584 km/s
True Right ascension
18h 51m 29s
True Declination
0° 00' 00"
Sunlit
Object was in full shadow at epoch
Visualization orbit readout
Latitude
42.97061°
Longitude
-114.73143°
Altitude
563.426 km
Speed
7.585 km/s
Apparent Right ascension
03h 31m 27s
Apparent Declination
4° 38' 04"
Sunlit
Object is in daylight
Visualization observer readout
Local Sidereal Time
18:06:38
Azimuth
48.092° ENE
Elevation
-32.956°
Doppler factor
1
Orbital elements
Apogee altitude
562.216 km
Perigee altitude
559.842 km
Semi-major axis
6,939.166 km
Eccentricity
0.00017
Inclination
43.0032°
RAAN
282.8726°
Arg. of periapsis
274.5728°
True anomaly
Unknown
Mean anomaly
85.4919°
Eccentric anomaly
Unknown
Mean motion
3.75476 °/min
Orbital period
95.88 mins
BSTAR
-0.00012768
Loading maneuver chart data...
Loading SW <> Apogee altitude chart data...
Loading historical data...
Loading historical data...
Loading historical data...
Loading historical data...
Loading historical data...
Loading historical data...
Loading historical data...

STARLINK-30385 Visibility forecast

Observer location: undefined°, undefined°

Span
Click to sort rows by Start time (UTC) header in descending order
Start Az.
Max El. time (UTC)
Max El. Az.
Max El.
End time (UTC)
End Az.
6 mins2025-05-31 11:27:43.289Z200.711° SSW2025-05-31 11:30:43.289Z152.657° SSE23.519°2025-05-31 11:33:43.289Z95.81° ESE
6 mins2025-05-31 13:08:43.289Z251.76° W2025-05-31 13:11:43.289Z67.15° ENE44.023°2025-05-31 13:14:43.289Z71.725° E
6 mins2025-05-31 14:49:43.289Z288.235° WNW2025-05-31 14:52:43.289Z26.976° NE38.173°2025-05-31 14:55:43.289Z76.173° E
6 mins2025-05-31 16:30:43.289Z289.265° WNW2025-05-31 16:32:43.289Z297.954° NW43.342°2025-05-31 16:36:43.289Z107.132° ESE
5 mins2025-05-31 18:11:43.289Z253.773° W2025-05-31 18:13:43.289Z209.748° SW24.556°2025-05-31 18:16:43.289Z158.741° S
|